Flag for USA

Past Weather in Guthrie, Oklahoma, USA — Yesterday and Last 2 Weeks

Now
73 °F

Thundershowers. Partly cloudy.


Feels Like: 71 °F
Forecast: 90 / 71 °F
Wind: 8 mph from Southeast

Location: Guthrie Municipal Airport

Current Time: Jul 4, 2020 at 1:01:12 am

Latest Report: Jul 4, 2020 at 12:12 am


Visibility: 10 mi

Pressure: 29.98 "Hg

Humidity: 90%

Dew Point: 70 °F

Location of GuthrieLocation

Past Weather in Guthrie — Graph

°F

Guthrie Temperature Yesterday

Maximum temperature yesterday: 94 °F (at 4:53 pm)
Minimum temperature yesterday: 71 °F (at 5:53 am)
Average temperature yesterday: 83 °F

High & Low Weather Summary for the Past Weeks

 TemperatureHumidityPressure
High97 °F (Jul 1, 3:53 pm)100% (Jun 19, 10:56 am)30.09 "Hg (Jun 19, 10:56 am)
Low60 °F (Jun 24, 5:53 am)34% (Jun 23, 5:53 pm)29.62 "Hg (Jun 28, 7:53 pm)
Average79 °F73%29.85 "Hg
* Reported Jun 18 11:53 pm — Jul 3 11:02 pm, Guthrie. Weather by CustomWeather, © 2020

Note: Actual official high and low records may vary slightly from our data, if they occured in-between our weather recording intervals... More about our weather records

Guthrie Weather History for the Previous 24 Hours

Scroll right to see more
 ConditionsComfort  
Time TempWeatherWind HumidityBarometerVisibility
11:02 pm
Fri, Jul 3
78 °FThunderstorms. Mostly cloudy.7 mph90%29.99 "Hg10 mi
10:38 pm82 °FThunderstorms. Passing clouds.3 mph74%29.98 "Hg10 mi
10:23 pm82 °FThundershowers. Passing clouds.9 mph77%29.96 "Hg10 mi
9:53 pm83 °FClear.7 mph74%29.92 "Hg10 mi
8:53 pm84 °FClear.5 mph74%29.90 "Hg10 mi
7:53 pm88 °FSunny.5 mph61%29.89 "Hg10 mi
6:53 pm91 °FSunny.8 mph56%29.89 "Hg10 mi
5:53 pm92 °FSunny.8 mph54%29.90 "Hg10 mi
4:53 pm94 °FSunny.8 mph48%29.91 "Hg10 mi
3:53 pm92 °FSunny.7 mph41%29.93 "Hg10 mi
2:53 pm90 °FSunny.8 mph52%29.96 "Hg10 mi
2:21 pm87 °FSunny.12 mph65%30.01 "Hg10 mi
1:53 pm82 °FThundershowers. Broken clouds.12 mph70%29.97 "Hg10 mi
1:37 pm85 °FThunderstorms. Overcast.13 mph63%30.02 "Hg10 mi
1:21 pm92 °FThundershowers. Partly sunny.7 mph49%30.02 "Hg10 mi
12:53 pm92 °FSunny.No wind47%29.98 "Hg10 mi
11:53 am89 °FSunny.7 mph55%29.98 "Hg10 mi
10:53 am86 °FSunny.No wind59%30.00 "Hg10 mi
9:53 am83 °FSunny.8 mph63%30.01 "Hg10 mi
8:53 am80 °FPassing clouds.10 mph67%30.01 "Hg10 mi
7:53 am75 °FSunny.6 mph79%30.01 "Hg10 mi
6:53 am71 °FSunny.No wind90%29.99 "Hg10 mi
5:53 am71 °FClear.3 mph90%29.97 "Hg10 mi
4:53 am74 °FClear.3 mph85%29.98 "Hg10 mi
3:53 am72 °FClear.6 mph93%29.95 "Hg10 mi
2:53 am73 °FClear.6 mph88%29.94 "Hg10 mi
1:53 am73 °FClear.6 mph88%29.93 "Hg10 mi
Weather by CustomWeather, © 2020

See weather overview